Previsão horária em Plonki

Hoje, 8 Março, Segunda-feira

Tempo Temperatura Precipitação Vento Pressão Humidade
00:00 -4°C° 0.1 mm 5 m/s 746 mmHg 89%
01:00 -4°C° 0.1 mm 5 m/s 746 mmHg 92%
02:00 -3°C° 0.1 mm 4 m/s 746 mmHg 90%
03:00 -4°C° 0.1 mm 3 m/s 746 mmHg 88%
04:00 -4°C° 0.1 mm 3 m/s 746 mmHg 86%
05:00 -4°C° 0 mm 3 m/s 746 mmHg 85%
06:00 -4°C° 0 mm 3 m/s 747 mmHg 84%
07:00 -4°C° 0 mm 4 m/s 747 mmHg 83%
08:00 -3°C° 0 mm 4 m/s 747 mmHg 73%
09:00 -2°C° 0 mm 5 m/s 748 mmHg 64%
10:00 -1°C° 0 mm 5 m/s 748 mmHg 55%
11:00 -1°C° 0 mm 5 m/s 748 mmHg 53%
12:00 -1°C° 0 mm 6 m/s 749 mmHg 52%
13:00 -1°C° 0 mm 6 m/s 749 mmHg 50%
14:00 0°C° 0 mm 5 m/s 749 mmHg 53%
15:00 0°C° 0 mm 5 m/s 749 mmHg 56%
16:00 -1°C° 0 mm 5 m/s 749 mmHg 58%
17:00 -2°C° 0 mm 4 m/s 749 mmHg 64%
18:00 -1°C° 0 mm 3 m/s 750 mmHg 70%
19:00 -2°C° 0 mm 3 m/s 750 mmHg 76%
20:00 -4°C° 0 mm 3 m/s 750 mmHg 77%
21:00 -4°C° 0 mm 3 m/s 750 mmHg 78%
22:00 -5°C° 0 mm 3 m/s 751 mmHg 80%
23:00 -5°C° 0 mm 3 m/s 751 mmHg 81%

Amanhã, 9 Março, Terça-feira

Tempo Temperatura Precipitação Vento Pressão Humidade
00:00 -4°C° 0 mm 2 m/s 751 mmHg 81%
01:00 -4°C° 0 mm 2 m/s 751 mmHg 82%
02:00 -5°C° 0 mm 2 m/s 751 mmHg 82%
03:00 -5°C° 0 mm 2 m/s 751 mmHg 82%
04:00 -5°C° 0 mm 2 m/s 751 mmHg 82%
05:00 -5°C° 0 mm 2 m/s 751 mmHg 80%
06:00 -4°C° 0 mm 2 m/s 751 mmHg 79%
07:00 -4°C° 0 mm 2 m/s 752 mmHg 77%
08:00 -2°C° 0 mm 1 m/s 752 mmHg 71%
09:00 -1°C° 0 mm 1 m/s 752 mmHg 65%
10:00 0°C° 0 mm 1 m/s 752 mmHg 59%
11:00 0°C° 0 mm 1 m/s 752 mmHg 55%
12:00 +1°C° 0 mm 1 m/s 752 mmHg 51%
13:00 +1°C° 0 mm 1 m/s 752 mmHg 48%
14:00 +1°C° 0 mm 1 m/s 752 mmHg 47%
15:00 +1°C° 0 mm 1 m/s 751 mmHg 47%
16:00 +1°C° 0 mm 1 m/s 751 mmHg 46%
17:00 0°C° 0 mm 1 m/s 751 mmHg 51%
18:00 -1°C° 0 mm 1 m/s 751 mmHg 56%
19:00 -1°C° 0 mm 1 m/s 751 mmHg 60%
20:00 -1°C° 0 mm 1 m/s 751 mmHg 62%
21:00 -2°C° 0 mm 1 m/s 752 mmHg 63%
22:00 -2°C° 0 mm 1 m/s 752 mmHg 65%
23:00 -2°C° 0 mm 1 m/s 751 mmHg 65%

Depois de amanhã, 10 Março, Quarta-feira

Tempo Temperatura Precipitação Vento Pressão Humidade
00:00 -2°C° 0 mm 1 m/s 751 mmHg 66%
01:00 -2°C° 0 mm 1 m/s 751 mmHg 66%
02:00 -2°C° 0 mm 1 m/s 751 mmHg 66%
03:00 -3°C° 0 mm 0 m/s 751 mmHg 66%
04:00 -3°C° 0 mm 0 m/s 751 mmHg 65%
05:00 -3°C° 0 mm 0 m/s 751 mmHg 64%
06:00 -3°C° 0 mm 0 m/s 751 mmHg 63%
07:00 -2°C° 0 mm 0 m/s 751 mmHg 62%
08:00 -1°C° 0 mm 0 m/s 751 mmHg 56%
09:00 0°C° 0 mm 1 m/s 751 mmHg 50%
10:00 +1°C° 0 mm 1 m/s 751 mmHg 45%
11:00 +2°C° 0 mm 1 m/s 751 mmHg 42%
12:00 +1°C° 0 mm 0 m/s 751 mmHg 40%
13:00 +2°C° 0 mm 0 m/s 751 mmHg 38%
14:00 +2°C° 0 mm 0 m/s 751 mmHg 39%
15:00 +2°C° 0 mm 0 m/s 751 mmHg 39%
16:00 +1°C° 0 mm 0 m/s 750 mmHg 40%
17:00 +1°C° 0 mm 1 m/s 751 mmHg 44%
18:00 0°C° 0 mm 1 m/s 751 mmHg 48%
19:00 -3°C° 0 mm 2 m/s 751 mmHg 52%
20:00 -3°C° 0 mm 2 m/s 751 mmHg 53%
21:00 -3°C° 0 mm 2 m/s 751 mmHg 54%
22:00 -3°C° 0 mm 2 m/s 751 mmHg 55%
23:00 -3°C° 0 mm 2 m/s 751 mmHg 55%

11 Março, Quinta-feira

Tempo Temperatura Precipitação Vento Pressão Humidade
00:00 -3°C° 0 mm 2 m/s 751 mmHg 55%
01:00 -3°C° 0 mm 2 m/s 751 mmHg 56%
02:00 -4°C° 0 mm 3 m/s 750 mmHg 56%
03:00 -4°C° 0 mm 3 m/s 750 mmHg 57%
04:00 -4°C° 0 mm 3 m/s 749 mmHg 57%
05:00 -3°C° 0 mm 4 m/s 749 mmHg 56%
06:00 -3°C° 0 mm 4 m/s 749 mmHg 54%
07:00 -4°C° 0 mm 5 m/s 748 mmHg 52%
08:00 -2°C° 0 mm 5 m/s 748 mmHg 51%
09:00 -2°C° 0 mm 6 m/s 747 mmHg 51%
10:00 +1°C° 0 mm 6 m/s 747 mmHg 51%
11:00 -1°C° 0.1 mm 7 m/s 746 mmHg 64%
12:00 -1°C° 0.1 mm 7 m/s 745 mmHg 77%
13:00 -1°C° 0.1 mm 7 m/s 744 mmHg 90%
14:00 -1°C° 0.8 mm 7 m/s 743 mmHg 92%
15:00 -1°C° 0.8 mm 7 m/s 742 mmHg 94%
16:00 -1°C° 0.8 mm 7 m/s 741 mmHg 96%
17:00 -1°C° 0.9 mm 7 m/s 740 mmHg 94%
18:00 0°C° 0.9 mm 7 m/s 740 mmHg 92%
19:00 0°C° 0.9 mm 7 m/s 739 mmHg 90%
20:00 +2°C° 1.1 mm 7 m/s 738 mmHg 91%
21:00 +2°C° 1.1 mm 7 m/s 738 mmHg 91%
22:00 +2°C° 1.1 mm 7 m/s 737 mmHg 91%
23:00 +2°C° 0.2 mm 7 m/s 737 mmHg 90%

12 Março, Sexta-feira

Tempo Temperatura Precipitação Vento Pressão Humidade
00:00 +3°C° 0.2 mm 6 m/s 737 mmHg 89%
01:00 +3°C° 0.2 mm 6 m/s 737 mmHg 89%
02:00 +3°C° 0 mm 6 m/s 738 mmHg 88%
03:00 +2°C° 0 mm 6 m/s 738 mmHg 88%
04:00 +2°C° 0 mm 5 m/s 738 mmHg 88%
05:00 +2°C° 0 mm 6 m/s 738 mmHg 87%
06:00 +2°C° 0 mm 6 m/s 739 mmHg 86%
07:00 +2°C° 0 mm 6 m/s 739 mmHg 86%
08:00 +3°C° 0 mm 7 m/s 739 mmHg 79%
09:00 +3°C° 0 mm 9 m/s 739 mmHg 72%
10:00 +5°C° 0 mm 10 m/s 739 mmHg 66%
11:00 +5°C° 0.1 mm 10 m/s 740 mmHg 68%
12:00 +5°C° 0.1 mm 9 m/s 740 mmHg 70%
13:00 +3°C° 0.1 mm 9 m/s 740 mmHg 72%
14:00 +5°C° 0.1 mm 9 m/s 741 mmHg 70%
15:00 +5°C° 0.1 mm 8 m/s 741 mmHg 68%
16:00 +5°C° 0.1 mm 7 m/s 741 mmHg 65%
17:00 +4°C° 0.2 mm 7 m/s 742 mmHg 68%
18:00 +3°C° 0.2 mm 6 m/s 742 mmHg 71%
19:00 +2°C° 0.2 mm 5 m/s 743 mmHg 74%
20:00 +2°C° 0 mm 5 m/s 743 mmHg 76%
21:00 +1°C° 0 mm 5 m/s 743 mmHg 77%
22:00 +1°C° 0 mm 5 m/s 744 mmHg 79%
23:00 +1°C° 0 mm 5 m/s 744 mmHg 80%

13 Março, Sábado

Tempo Temperatura Precipitação Vento Pressão Humidade
00:00 0°C° 0 mm 4 m/s 744 mmHg 81%
01:00 0°C° 0 mm 4 m/s 744 mmHg 83%
02:00 0°C° 0 mm 4 m/s 744 mmHg 84%
03:00 -1°C° 0 mm 4 m/s 744 mmHg 85%
04:00 -1°C° 0 mm 4 m/s 744 mmHg 86%
05:00 -1°C° 0 mm 4 m/s 744 mmHg 84%
06:00 -1°C° 0 mm 4 m/s 744 mmHg 83%
07:00 +1°C° 0 mm 3 m/s 744 mmHg 81%
08:00 +1°C° 0 mm 4 m/s 744 mmHg 76%
09:00 +4°C° 0 mm 4 m/s 744 mmHg 70%
10:00 +5°C° 0 mm 5 m/s 744 mmHg 64%
11:00 +6°C° 0 mm 5 m/s 743 mmHg 61%
12:00 +7°C° 0 mm 5 m/s 743 mmHg 57%
13:00 +8°C° 0 mm 6 m/s 743 mmHg 54%
14:00 +8°C° 0 mm 5 m/s 742 mmHg 55%
15:00 +8°C° 0 mm 4 m/s 742 mmHg 57%
16:00 +8°C° 0 mm 4 m/s 742 mmHg 58%
17:00 +7°C° 0 mm 4 m/s 742 mmHg 64%
18:00 +6°C° 0 mm 4 m/s 742 mmHg 69%
19:00 +5°C° 0 mm 5 m/s 742 mmHg 75%
20:00 +3°C° 0 mm 5 m/s 742 mmHg 79%
21:00 +4°C° 0 mm 4 m/s 742 mmHg 83%
22:00 +4°C° 0 mm 4 m/s 742 mmHg 87%
23:00 +3°C° 0 mm 4 m/s 742 mmHg 89%
Mostrar mais

Necessitamos do seu Consentimento

A Meteoprog e os seus Fornecedores de Serviços podem armazenar e aceder a dados pessoais como cookies, identificadores do dispositivo ou outras tecnologias semelhantes existentes no seu dispositivo e processar estes dados para personalizar conteúdos e anúncios, assim como funcionalidades nas redes sociais e análise de tráfego.

  • Armazenar e/ou aceder a informações no seu dispositivo

    Os cookies, identificadores do dispositivo ou outras informações podem ser armazenados ou acedidos no seu dispositivo, para os fins acima indicados.

  • Anúncios e conteúdos personalizados, medição de anúncios e conteúdos, dados sobre o público-alvo e desenvolvimento de produtos

    Os anúncios e os conteúdos podem ser personalizados com base num perfil. Podem ser adicionados dados adicionais para uma maior personalização dos anúncios e dos conteúdos. A eficácia dos anúncios e dos conteúdos pode ser medida. Podem ser obtidas informações sobre o público que visualizou os anúncios e os conteúdos. Estes dados podem ser usados para desenvolver ou melhorar sistemas, softwares ou a experiência do utilizador.

Ao clicar em "Eu concordo”, permitirá o uso de cookies, identificadores do dispositivo e web beacons mencionados ou outras tecnologias semelhantes. As configurações do navegador do seu dispositivo podem ser alteradas.

Para certos fins, podem ser invocados interesses legítimos ao invés de consentimento. Pode ler mais informação sobre este assunto na nossa Política de Privacidade e Cookies.